Volver al catálogo

COSMOS 970 DEB

ActivoLEO
NORAD 64995·DEBRIS·🇷🇺 Russia

Lanzado Dec 21, 1977 desde Baikonur Cosmodrome

Loading…

Próximos Pases (próximas 24 horas)

TLE

ObsoletoSource: Space-Track

Época: Aug 27, 2026, 19:39 UTC

1 64995U 77121DG  26239.81933813 -.00000048  00000-0  37827-4 0  9993
2 64995  65.8039  24.2172 0115254  11.7565 348.6139 13.59157953588369

Sigue COSMOS 970 DEB en tiempo real con AllMySat

Download on the App Store